Location: Geçitköy
(36.7327°N, 29.8010°E)
Time: 19:51:40
(UTC+00:00)

USA 215 - Pass Details

Date: 12 January 2026
Orbit: 1098 x 1109 km, 123.0° (Epoch: 10 January)

Event Time Altitude Azimuth Distance (km) Brightness Sun altitude
Exits shadow 16:23:25 13° 38° (NE) 2,708 4.8 -15.4°
Maximum altitude 16:29:11 65° 319° (NW) 1,197 3.5 -16.5°
Drops below altitude 10° 16:35:37 10° 239° (WSW) 2,948 6.7 -17.8°
Sets 16:38:06 0° 237° (WSW) 3,902 7.5 -18.3°
